Location: De Greiden
(52.9496°N, 5.9137°E)
Time: 23:43:39
(UTC+00:00)

H-2A R/B - Pass Details

Date: 24 January 2021
Orbit: 529 x 651 km, 98.3° (Epoch: 01 March)

Event Time Altitude Azimuth Distance (km) Brightness Sun altitude
Rises 17:04:28 0° 175° (S) 2,768 6.1 -8.7°
Reaches altitude 10° 17:06:36 10° 179° (S) 1,894 5.3 -9.0°
Maximum altitude 17:10:39 56° 259° (WSW) 716 3.3 -9.6°
Drops below altitude 10° 17:14:53 10° 338° (NNW) 1,985 5.2 -10.2°
Sets 17:17:10 0° 342° (NNW) 2,914 6.0 -10.5°
